Facebook Twitter

Wetterstation Lechfeld

Messwerte
  Temperatur Wetter Niederschlag Luftdruck Wind
So, 23:20 Uhr 16° - 1014 hPa 11 km/h S
So, 23:00 Uhr 16° - 1013 hPa 11 km/h S
So, 22:00 Uhr 17° - 1011 hPa 4 km/h SW
So, 21:00 Uhr 20° - 1010 hPa 7 km/h SW
So, 20:00 Uhr 21° - 0 mm 1010 hPa 11 km/h SW
So, 19:00 Uhr 22° - - 1009 hPa 14 km/h SW
So, 18:00 Uhr 22° - - 1009 hPa 11 km/h SW
So, 17:00 Uhr 22° - - 1009 hPa 11 km/h SW
So, 16:00 Uhr 21° - - 1009 hPa 14 km/h SO
So, 15:00 Uhr 21° - - 1010 hPa 14 km/h O
So, 14:00 Uhr 20° - - 1010 hPa 7 km/h SO
So, 13:00 Uhr 20° - - 1011 hPa 11 km/h O
So, 12:00 Uhr 18° - - 1011 hPa 7 km/h SO
So, 11:00 Uhr 17° - - 1012 hPa 7 km/h N
So, 10:00 Uhr 16° - - 1012 hPa 7 km/h S
So, 09:00 Uhr 15° - - 1013 hPa 11 km/h S
So, 08:00 Uhr 14° - 0 mm 1013 hPa 11 km/h S
So, 07:00 Uhr 13° - - 1012 hPa 14 km/h S
So, 06:00 Uhr 12° - - 1013 hPa 11 km/h S
So, 05:00 Uhr 13° - - 1013 hPa 11 km/h S

Alle Zeitangaben MESZ